カタログに戻る

DELTA 1 DEB

運用中LEO
NORAD 12532·DEBRIS·🇺🇸 United States

打ち上げ Jul 29, 1976 から Vandenberg Space Force Base

Loading…

次のパス (今後24時間)

TLE

最新Source: Space-Track

元期: Sep 13, 2026, 22:36 UTC

1 12532U 76077DM  26256.94205229  .00000891  00000-0  37191-2 0  9995
2 12532 102.1397 261.2056 0244538 106.3906 324.7441 12.78559009392152

AllMySatでDELTA 1 DEBをリアルタイム追跡

Download on the App Store